Oconto, WI

3:36 AM CDT on October 22, 2017 (GMT -0500)
Oconto Municipal

Weather History for KOCQ - April, 2014

Change the Weather History Date:

Sunday, April 13, 2014

  Actual Average Record
Temperature  
Mean Temperature 42 °F -  
Max Temperature 48 °F 50 °F 63 °F (2015)
Min Temperature 35 °F 30 °F 27 °F (2013)
Degree Days  
Heating Degree Days 24    
Moisture  
Dew Point 38 °F    
Average Humidity 92    
Maximum Humidity 100    
Minimum Humidity 74    
Precipitation  
Precipitation 0.28 in - - ()
Sea Level Pressure  
Sea Level Pressure 29.74 in    
Wind  
Wind Speed 6 mph (NE)    
Max Wind Speed 22 mph    
Max Gust Speed 30 mph    
Visibility 7 miles    
Events      
Averages and records for this station are not official NWS values.
T = Trace of Precipitation, MM = Missing Value Source: NWS Daily Summary

Daily Weather History Graph

Daily Weather History Graph

Search for Another Location

Airport or City:

Trip Planner

Search our weather history database for the weather conditions in past years. The results will help you decide how hot, cold, wet, or windy it might be!

Date:

Astronomy

Apr. 13, 2014 Rise Set
Actual Time 6:10 AM CDT 7:34 PM CDT
Civil Twilight 5:40 AM CDT 8:04 PM CDT
Nautical Twilight 5:03 AM CDT 8:41 PM CDT
Astronomical Twilight 4:24 AM CDT 9:21 PM CDT
Moon 6:09 PM CDT (4/13) 5:13 AM CDT (4/13)
Length of Visible Light 14h 24m
Length of Day
13h 23m
Waxing Gibbous, 97% of the Moon is Illuminated
Apr 13
Waxing Gibbous
Apr 15
Full
Apr 22
Last Quarter
Apr 29
New
May 6
First Quarter

Hourly Weather History & Observations

Time (CDT) Temp. Windchill Dew Point Humidity Pressure Visibility Wind Dir Wind Speed Gust Speed Precip Events Conditions
12:15 AM 36.9 °F 32.2 °F 36.7 °F 99% 29.76 in 2.5 mi NNE 5.8 mph - N/A   Overcast
12:35 AM 36.9 °F 32.2 °F 36.7 °F 99% 29.76 in 2.5 mi North 5.8 mph - N/A   Overcast
12:55 AM 36.7 °F 31.2 °F 36.5 °F 99% 29.76 in 2.0 mi North 6.9 mph - N/A   Overcast
1:15 AM 36.7 °F 30.5 °F 36.7 °F 100% 29.76 in 2.0 mi NNE 8.1 mph - N/A   Overcast
1:30 AM 36.7 °F 32.0 °F 36.7 °F 100% 29.75 in 1.8 mi NNE 5.8 mph - N/A   Overcast
1:55 AM 36.5 °F 31.0 °F 36.5 °F 100% 29.75 in 1.8 mi North 6.9 mph - N/A   Overcast
2:15 AM 36.5 °F 31.8 °F 36.5 °F 100% 29.75 in 1.2 mi North 5.8 mph - N/A   Overcast
2:35 AM 36.3 °F 30.8 °F 36.3 °F 100% 29.73 in 1.2 mi North 6.9 mph - N/A   Overcast
2:55 AM 36.1 °F 29.9 °F 36.1 °F 100% 29.72 in 1.5 mi North 8.1 mph - N/A   Overcast
3:15 AM 36.0 °F - 36.0 °F 100% 29.73 in 1.5 mi Calm Calm - N/A   Overcast
3:35 AM 36.0 °F 33.3 °F 36.0 °F 100% 29.73 in 1.5 mi NNE 3.5 mph - N/A   Overcast
3:55 AM 35.8 °F 30.9 °F 35.8 °F 100% 29.72 in 1.2 mi NNE 5.8 mph - N/A   Overcast
4:15 AM 35.8 °F 30.9 °F 35.8 °F 100% 29.72 in 1.2 mi North 5.8 mph - N/A   Overcast
4:35 AM 35.8 °F 30.1 °F 35.8 °F 100% 29.74 in 1.5 mi North 6.9 mph - N/A   Overcast
4:55 AM 35.8 °F 30.1 °F 35.8 °F 100% 29.76 in 1.5 mi North 6.9 mph - N/A   Overcast
5:15 AM 35.8 °F 30.1 °F 35.8 °F 100% 29.73 in 1.5 mi NNE 6.9 mph - N/A   Overcast
5:35 AM 35.8 °F 30.9 °F 35.8 °F 100% 29.71 in 1.2 mi North 5.8 mph - N/A   Overcast
5:55 AM 35.8 °F 29.4 °F 35.8 °F 100% 29.71 in 1.5 mi North 8.1 mph - N/A   Overcast
6:15 AM 36.1 °F 31.4 °F 36.1 °F 100% 29.74 in 2.5 mi North 5.8 mph - N/A   Overcast
6:35 AM 36.5 °F 32.7 °F 36.5 °F 100% 29.75 in 5.0 mi NNW 4.6 mph - N/A   Overcast
6:55 AM 36.5 °F 32.7 °F 36.5 °F 100% 29.76 in 3.0 mi NNW 4.6 mph - N/A   Overcast
7:15 AM 36.5 °F 33.9 °F 36.5 °F 100% 29.75 in 2.5 mi North 3.5 mph - N/A   Overcast
7:35 AM 36.9 °F 33.1 °F 36.7 °F 99% 29.76 in 3.0 mi North 4.6 mph - N/A   Overcast
7:55 AM 37.4 °F 33.8 °F 37.0 °F 99% 29.75 in 5.0 mi NNE 4.6 mph - N/A   Overcast
8:15 AM 38.1 °F 33.7 °F 37.4 °F 97% 29.77 in 10.0 mi NNE 5.8 mph - N/A   Overcast
8:35 AM 38.3 °F 33.9 °F 37.4 °F 97% 29.76 in 10.0 mi North 5.8 mph - N/A   Overcast
8:55 AM 38.8 °F 33.2 °F 37.8 °F 96% 29.77 in 10.0 mi North 8.1 mph - N/A   Overcast
9:15 AM 39.6 °F 35.4 °F 38.1 °F 95% 29.78 in 10.0 mi North 5.8 mph - N/A   Overcast
9:55 AM 40.5 °F 35.8 °F 38.5 °F 93% 29.78 in 10.0 mi NNE 6.9 mph - N/A   Overcast
10:15 AM 41.9 °F 36.9 °F 39.0 °F 90% 29.77 in 10.0 mi NNE 8.1 mph - N/A   Overcast
10:35 AM 42.8 °F 38.0 °F 39.6 °F 88% 29.76 in 10.0 mi NNE 8.1 mph - N/A   Overcast
10:55 AM 43.0 °F 39.5 °F 39.6 °F 88% 29.76 in 10.0 mi NE 5.8 mph - N/A   Overcast
11:15 AM 44.2 °F 41.0 °F 40.3 °F 86% 29.76 in 10.0 mi North 5.8 mph - N/A   Overcast
11:35 AM 45.7 °F 43.4 °F 40.8 °F 83% 29.77 in 10.0 mi North 4.6 mph - N/A   Overcast
11:55 AM 45.9 °F 43.6 °F 41.0 °F 83% 29.79 in 10.0 mi NNE 4.6 mph - N/A   Overcast
12:15 PM 46.6 °F - 41.2 °F 81% 29.80 in 10.0 mi Calm Calm - N/A   Overcast
12:30 PM 45.5 °F 42.5 °F 39.6 °F 80% 29.82 in 10.0 mi South 5.8 mph - N/A   Overcast
12:55 PM 44.1 °F 41.5 °F 39.0 °F 82% 29.80 in 10.0 mi South 4.6 mph - N/A   Overcast
1:15 PM 45.3 °F 44.0 °F 39.4 °F 80% 29.79 in 10.0 mi South 3.5 mph - N/A   Overcast
1:35 PM 48.0 °F - 40.8 °F 76% 29.78 in 10.0 mi SE 3.5 mph - N/A   Mostly Cloudy
1:55 PM 48.2 °F - 40.5 °F 75% 29.77 in 10.0 mi SSE 5.8 mph - N/A   Scattered Clouds
2:15 PM 48.6 °F - 40.8 °F 75% 29.78 in 10.0 mi SE 5.8 mph - N/A   Mostly Cloudy
2:30 PM 48.2 °F - 40.3 °F 74% 29.79 in 10.0 mi SE 4.6 mph - N/A   Mostly Cloudy
2:55 PM 47.3 °F - 40.1 °F 76% 29.78 in 10.0 mi ESE 3.5 mph - N/A   Overcast
3:15 PM 46.9 °F - 40.1 °F 77% 29.78 in 10.0 mi ESE 4.6 mph - N/A   Overcast
3:35 PM 45.7 °F 42.7 °F 39.6 °F 79% 29.78 in 10.0 mi SSE 5.8 mph - N/A   Overcast
3:55 PM 45.7 °F 44.4 °F 40.1 °F 81% 29.76 in 10.0 mi SE 3.5 mph - N/A   Overcast
4:15 PM 45.3 °F 44.0 °F 39.9 °F 81% 29.76 in 10.0 mi ESE 3.5 mph - N/A   Overcast
4:35 PM 45.0 °F - 39.6 °F 81% 29.75 in 10.0 mi Calm Calm - N/A   Overcast
4:55 PM 44.6 °F 43.1 °F 39.7 °F 83% 29.76 in 10.0 mi ESE 3.5 mph - N/A   Overcast
5:15 PM 45.0 °F 43.5 °F 39.9 °F 82% 29.75 in 10.0 mi ENE 3.5 mph - N/A   Overcast
5:35 PM 44.6 °F 42.2 °F 39.9 °F 84% 29.75 in 10.0 mi NE 4.6 mph - N/A   Overcast
5:55 PM 43.3 °F 40.7 °F 40.1 °F 88% 29.73 in 10.0 mi NE 4.6 mph - N/A   Overcast
6:15 PM 43.2 °F 40.5 °F 41.0 °F 92% 29.71 in 10.0 mi NE 4.6 mph - N/A   Overcast
6:35 PM 43.7 °F 40.3 °F 41.9 °F 93% 29.69 in 10.0 mi NNE 5.8 mph - N/A   Overcast
6:50 PM 44.4 °F - 41.9 °F 91% 29.70 in 10.0 mi Calm Calm - N/A   Overcast
7:15 PM 43.9 °F 41.3 °F 41.0 °F 90% 29.71 in 10.0 mi East 4.6 mph - N/A   Overcast
7:35 PM 42.3 °F 38.6 °F 40.5 °F 93% 29.71 in 7.0 mi ENE 5.8 mph - N/A   Overcast
7:55 PM 41.4 °F 37.6 °F 40.1 °F 95% 29.72 in 7.0 mi ENE 5.8 mph - 0.02 in   Overcast
8:15 PM 41.0 °F 35.2 °F 39.7 °F 95% 29.73 in 7.0 mi NE 9.2 mph - 0.03 in   Overcast
8:35 PM 40.5 °F 33.2 °F 39.2 °F 95% 29.72 in 7.0 mi NE 12.7 mph 20.7 mph 0.08 in   Overcast
8:55 PM 38.7 °F 31.8 °F 37.4 °F 95% 29.71 in 5.0 mi NE 10.4 mph 19.6 mph 0.12 in   Overcast
9:15 PM 37.6 °F 31.0 °F 36.5 °F 96% 29.71 in 7.0 mi NE 9.2 mph 16.1 mph 0.01 in   Overcast
9:35 PM 38.5 °F 31.6 °F 37.4 °F 96% 29.71 in 5.0 mi NE 10.4 mph 23.0 mph 0.04 in   Overcast
9:55 PM 38.5 °F 30.7 °F 37.4 °F 96% 29.71 in 5.0 mi NNE 12.7 mph 17.3 mph 0.07 in   Overcast
10:15 PM 39.0 °F 31.4 °F 37.8 °F 95% 29.69 in 5.0 mi NNE 12.7 mph 20.7 mph 0.02 in   Overcast
10:35 PM 39.2 °F 30.2 °F 37.6 °F 94% 29.66 in 7.0 mi NNE 17.3 mph 21.9 mph 0.03 in   Overcast
10:55 PM 39.2 °F 30.2 °F 37.4 °F 93% 29.67 in 7.0 mi North 17.3 mph 29.9 mph 0.04 in   Overcast
11:15 PM 38.7 °F 30.5 °F 36.9 °F 93% 29.67 in 7.0 mi NNE 13.8 mph 21.9 mph 0.01 in   Overcast
11:35 PM 38.3 °F 28.7 °F 36.3 °F 93% 29.65 in 7.0 mi NNE 18.4 mph 25.3 mph 0.01 in   Overcast
11:55 PM 37.6 °F 26.9 °F 36.0 °F 94% 29.62 in 5.0 mi North 21.9 mph 28.8 mph 0.03 in   Overcast